BAW8648 LGAV-LGKR

Flight info

Callsign BAW8648
Flight time 0h 43m
Altitude 32000
Route KOR1E KOR UL53 PARNA PARNA1P
Aircraft A320/M-SDE3FGIJ1KRWXY/SB1

Departure

Time 2026-05-06 21:21
Airport Athens Eleftherios Venizelos International Airport (LGAV)

Arrival

Time 2026-05-06 22:04
Airport Corfu Ioannis Kapodistrias International Airport (LGKR)
Time Latitude Longitude Altitude Speed Heading
2026-05-06 20:59 37.93468 23.94690 301 ft 0 kts 307°
2026-05-06 21:12 37.93464 23.94697 302 ft 4 kts 307°
2026-05-06 21:12 37.93447 23.94724 301 ft 4 kts 306°
2026-05-06 21:12 37.93435 23.94746 302 ft 4 kts 301°
2026-05-06 21:12 37.93426 23.94776 303 ft 4 kts 265°
2026-05-06 21:13 37.93434 23.94801 301 ft 2 kts 217°
2026-05-06 21:13 37.93435 23.94802 301 ft 0 kts 217°
2026-05-06 21:16 37.93423 23.94791 303 ft 4 kts 217°
2026-05-06 21:16 37.93395 23.94764 304 ft 6 kts 217°
2026-05-06 21:16 37.93352 23.94723 302 ft 9 kts 217°
2026-05-06 21:16 37.93293 23.94666 303 ft 12 kts 217°
2026-05-06 21:17 37.93233 23.94609 301 ft 9 kts 216°
2026-05-06 21:17 37.93162 23.94594 301 ft 12 kts 181°
2026-05-06 21:17 37.93093 23.94610 301 ft 8 kts 133°
2026-05-06 21:17 37.93049 23.94674 302 ft 10 kts 150°
2026-05-06 21:18 37.92976 23.94642 301 ft 13 kts 216°
2026-05-06 21:18 37.92895 23.94565 301 ft 16 kts 217°
2026-05-06 21:18 37.92799 23.94475 303 ft 18 kts 217°
2026-05-06 21:18 37.92689 23.94370 305 ft 21 kts 217°
2026-05-06 21:19 37.92570 23.94257 302 ft 17 kts 217°
2026-05-06 21:19 37.92485 23.94176 305 ft 14 kts 217°
2026-05-06 21:19 37.92421 23.94175 305 ft 9 kts 140°
2026-05-06 21:19 37.92410 23.94249 305 ft 8 kts 91°
2026-05-06 21:20 37.92412 23.94318 308 ft 8 kts 86°
2026-05-06 21:20 37.92432 23.94400 308 ft 13 kts 49°
2026-05-06 21:20 37.92530 23.94495 309 ft 29 kts 36°
2026-05-06 21:20 37.92892 23.94838 301 ft 101 kts 37°
2026-05-06 21:21 37.93612 23.95521 284 ft 155 kts 37°
2026-05-06 21:21 37.94499 23.96398 797 ft 163 kts 46°
2026-05-06 21:21 37.95214 23.97482 1568 ft 158 kts 52°
2026-05-06 21:21 37.95855 23.98622 2172 ft 162 kts 60°
2026-05-06 21:22 37.96299 23.99954 2772 ft 166 kts 74°
2026-05-06 21:22 37.96540 24.01381 3430 ft 165 kts 77°
2026-05-06 21:22 37.96783 24.02819 4028 ft 169 kts 77°
2026-05-06 21:22 37.97040 24.04305 4583 ft 177 kts 77°
2026-05-06 21:23 37.97320 24.05905 5001 ft 194 kts 77°
2026-05-06 21:23 37.97630 24.07653 5361 ft 215 kts 77°
2026-05-06 21:23 37.97829 24.09635 5690 ft 241 kts 96°
2026-05-06 21:23 37.97178 24.11675 6144 ft 266 kts 131°
2026-05-06 21:24 37.95604 24.12955 6851 ft 278 kts 166°
2026-05-06 21:24 37.93673 24.12892 7742 ft 284 kts 199°
2026-05-06 21:24 37.92050 24.11495 8650 ft 288 kts 232°
2026-05-06 21:24 37.91199 24.09210 9558 ft 291 kts 257°
2026-05-06 21:25 37.90911 24.06660 10390 ft 300 kts 266°
2026-05-06 21:25 37.90823 24.03922 10753 ft 324 kts 269°
2026-05-06 21:25 37.90765 24.00996 11302 ft 338 kts 268°
2026-05-06 21:25 37.90645 23.97996 12131 ft 344 kts 266°
2026-05-06 21:26 37.90440 23.94962 13010 ft 348 kts 265°
2026-05-06 21:26 37.90161 23.91896 13867 ft 352 kts 263°
2026-05-06 21:26 37.89831 23.88807 14708 ft 356 kts 263°
2026-05-06 21:26 37.89473 23.85687 15511 ft 360 kts 263°
2026-05-06 21:27 37.89109 23.82537 16289 ft 364 kts 263°
2026-05-06 21:27 37.88927 23.79334 17006 ft 367 kts 273°
2026-05-06 21:27 37.89079 23.76101 17744 ft 369 kts 275°
2026-05-06 21:27 37.89251 23.72844 18469 ft 373 kts 275°
2026-05-06 21:28 37.89429 23.69555 19194 ft 377 kts 275°
2026-05-06 21:28 37.89605 23.66227 19918 ft 381 kts 275°
2026-05-06 21:28 37.89777 23.62864 20651 ft 385 kts 275°
2026-05-06 21:28 37.89947 23.59469 21353 ft 389 kts 275°
2026-05-06 21:29 37.90118 23.56035 22023 ft 393 kts 275°
2026-05-06 21:29 37.90289 23.52571 22680 ft 396 kts 275°
2026-05-06 21:29 37.90460 23.49073 23314 ft 400 kts 275°
2026-05-06 21:29 37.90630 23.45542 23936 ft 403 kts 275°
2026-05-06 21:30 37.90802 23.41978 24563 ft 408 kts 275°
2026-05-06 21:30 37.90976 23.38382 25179 ft 411 kts 275°
2026-05-06 21:30 37.91150 23.34754 25787 ft 414 kts 275°
2026-05-06 21:30 37.91324 23.31094 26372 ft 418 kts 275°
2026-05-06 21:31 37.91497 23.27458 26933 ft 421 kts 275°
2026-05-06 21:31 37.91670 23.23746 27487 ft 424 kts 274°
2026-05-06 21:31 37.91842 23.20003 28032 ft 427 kts 274°
2026-05-06 21:31 37.92015 23.16236 28563 ft 430 kts 274°
2026-05-06 21:32 37.92190 23.12442 29071 ft 433 kts 274°
2026-05-06 21:32 37.92540 23.04781 30009 ft 439 kts 274°
2026-05-06 21:32 37.92714 23.00912 30451 ft 441 kts 274°
2026-05-06 21:33 37.93064 22.97054 30862 ft 443 kts 282°
2026-05-06 21:33 37.93904 22.93301 31263 ft 444 kts 292°
2026-05-06 21:33 37.95251 22.89734 31799 ft 442 kts 301°
2026-05-06 21:33 37.96948 22.86491 32051 ft 441 kts 305°
2026-05-06 21:34 38.00379 22.80260 32101 ft 427 kts 305°
2026-05-06 21:34 38.03779 22.74085 32113 ft 423 kts 305°
2026-05-06 21:35 38.07110 22.68014 32120 ft 422 kts 305°
2026-05-06 21:35 38.10460 22.61899 32099 ft 422 kts 305°
2026-05-06 21:36 38.13812 22.55778 32100 ft 422 kts 305°
2026-05-06 21:36 38.17154 22.49649 32101 ft 422 kts 305°
2026-05-06 21:37 38.20496 22.43512 32102 ft 422 kts 305°
2026-05-06 21:37 38.23838 22.37380 32099 ft 422 kts 305°
2026-05-06 21:38 38.27171 22.31234 32102 ft 422 kts 305°
2026-05-06 21:38 38.30496 22.25077 32100 ft 422 kts 304°
2026-05-06 21:39 38.33820 22.18928 32095 ft 422 kts 305°
2026-05-06 21:39 38.37148 22.12770 32100 ft 422 kts 305°
2026-05-06 21:40 38.40470 22.06597 32101 ft 422 kts 304°
2026-05-06 21:40 38.43788 22.00423 32108 ft 422 kts 304°
2026-05-06 21:41 38.47105 21.94234 32116 ft 422 kts 304°
2026-05-06 21:41 38.49878 21.89051 32102 ft 422 kts 304°
2026-05-06 21:42 38.53165 21.82898 32115 ft 422 kts 304°
2026-05-06 21:42 38.56476 21.76706 32117 ft 422 kts 304°
2026-05-06 21:43 38.59773 21.70509 32102 ft 422 kts 304°
2026-05-06 21:43 38.63061 21.64308 32101 ft 421 kts 304°
2026-05-06 21:44 38.66349 21.58103 32099 ft 421 kts 304°
2026-05-06 21:44 38.69639 21.51892 32101 ft 422 kts 304°
2026-05-06 21:45 38.72921 21.45667 32101 ft 422 kts 304°
2026-05-06 21:45 38.76209 21.39437 32122 ft 422 kts 304°
2026-05-06 21:46 38.79492 21.33200 32119 ft 422 kts 304°
2026-05-06 21:46 38.82769 21.26961 32118 ft 422 kts 304°
2026-05-06 21:47 38.86046 21.20715 32136 ft 422 kts 304°
2026-05-06 21:47 38.89323 21.14457 31801 ft 422 kts 304°
2026-05-06 21:48 38.90960 21.11330 31549 ft 422 kts 304°
2026-05-06 21:48 38.92597 21.08196 31301 ft 423 kts 304°
2026-05-06 21:48 38.94236 21.05052 31054 ft 424 kts 304°
2026-05-06 21:48 38.95873 21.01906 30806 ft 424 kts 304°
2026-05-06 21:49 38.97503 20.98766 30443 ft 420 kts 304°
2026-05-06 21:49 38.99117 20.95654 29852 ft 418 kts 304°
2026-05-06 21:49 39.00725 20.92553 29272 ft 415 kts 304°
2026-05-06 21:49 39.02299 20.89514 28701 ft 412 kts 304°
2026-05-06 21:50 39.03882 20.86463 28122 ft 409 kts 304°
2026-05-06 21:50 39.05476 20.83383 27541 ft 406 kts 303°
2026-05-06 21:50 39.07016 20.80411 26988 ft 403 kts 304°
2026-05-06 21:50 39.08568 20.77421 26413 ft 400 kts 303°
2026-05-06 21:51 39.10104 20.74453 25885 ft 397 kts 303°
2026-05-06 21:51 39.11638 20.71476 25340 ft 395 kts 303°
2026-05-06 21:51 39.13146 20.68507 24719 ft 392 kts 300°
2026-05-06 21:51 39.14423 20.65397 23672 ft 394 kts 297°
2026-05-06 21:52 39.15649 20.62234 22622 ft 395 kts 296°
2026-05-06 21:52 39.16871 20.59008 21555 ft 395 kts 295°
2026-05-06 21:52 39.18061 20.55839 20504 ft 390 kts 295°
2026-05-06 21:52 39.19237 20.52720 19473 ft 384 kts 295°
2026-05-06 21:53 39.20385 20.49689 18482 ft 378 kts 296°
2026-05-06 21:53 39.21545 20.46633 17457 ft 371 kts 295°
2026-05-06 21:53 39.22652 20.43719 16490 ft 364 kts 295°
2026-05-06 21:53 39.23755 20.40815 15527 ft 357 kts 296°
2026-05-06 21:54 39.24840 20.37959 14586 ft 351 kts 296°
2026-05-06 21:54 39.25900 20.35159 13660 ft 344 kts 295°
2026-05-06 21:54 39.26943 20.32404 12744 ft 339 kts 296°
2026-05-06 21:54 39.27961 20.29721 12288 ft 322 kts 296°
2026-05-06 21:55 39.28912 20.27211 11982 ft 304 kts 296°
2026-05-06 21:55 39.29827 20.24788 11421 ft 297 kts 295°
2026-05-06 21:55 39.30725 20.22400 10771 ft 295 kts 295°
2026-05-06 21:55 39.31618 20.20025 10106 ft 293 kts 295°
2026-05-06 21:56 39.32373 20.17600 9433 ft 290 kts 282°
2026-05-06 21:56 39.32453 20.15023 8779 ft 288 kts 260°
2026-05-06 21:56 39.31802 20.12597 8121 ft 286 kts 241°
2026-05-06 21:56 39.30861 20.10344 7447 ft 285 kts 243°
2026-05-06 21:57 39.30027 20.08042 6813 ft 281 kts 249°
2026-05-06 21:57 39.29776 20.05579 6205 ft 277 kts 278°
2026-05-06 21:57 39.30474 20.03298 5601 ft 275 kts 307°
2026-05-06 21:57 39.31896 20.01685 4928 ft 274 kts 326°
2026-05-06 21:58 39.33492 20.00349 4356 ft 270 kts 327°
2026-05-06 21:58 39.35030 19.99092 4159 ft 252 kts 329°
2026-05-06 21:58 39.36581 19.98259 4033 ft 234 kts 347°
2026-05-06 21:58 39.38162 19.98049 3937 ft 224 kts 358°
2026-05-06 21:59 39.39685 19.97971 3829 ft 214 kts 358°
2026-05-06 21:59 39.41141 19.97891 3736 ft 205 kts 358°
2026-05-06 21:59 39.42497 19.97733 3662 ft 185 kts 347°
2026-05-06 21:59 39.43689 19.97298 3391 ft 174 kts 344°
2026-05-06 22:00 39.44817 19.96876 3142 ft 163 kts 343°
2026-05-06 22:00 39.45853 19.96487 2912 ft 149 kts 343°
2026-05-06 22:00 39.46826 19.96122 2697 ft 144 kts 343°
2026-05-06 22:00 39.47776 19.95758 2494 ft 141 kts 343°
2026-05-06 22:01 39.48713 19.95395 2296 ft 140 kts 343°
2026-05-06 22:01 39.49645 19.95031 2098 ft 140 kts 343°
2026-05-06 22:01 39.50573 19.94667 1900 ft 139 kts 343°
2026-05-06 22:01 39.51493 19.94303 1702 ft 138 kts 343°
2026-05-06 22:02 39.52409 19.93927 1484 ft 138 kts 342°
2026-05-06 22:02 39.53316 19.93537 1286 ft 137 kts 341°
2026-05-06 22:02 39.54215 19.93133 1080 ft 137 kts 340°
2026-05-06 22:02 39.55096 19.92724 877 ft 136 kts 340°
2026-05-06 22:03 39.56003 19.92327 674 ft 136 kts 345°
2026-05-06 22:03 39.56920 19.92062 578 ft 135 kts 349°
2026-05-06 22:03 39.57837 19.91830 387 ft 135 kts 349°
2026-05-06 22:03 39.58770 19.91580 204 ft 135 kts 348°
2026-05-06 22:04 39.59675 19.91346 30 ft 132 kts 348°
2026-05-06 22:04 39.60403 19.91159 21 ft 68 kts 349°
2026-05-06 22:04 39.60747 19.91070 21 ft 37 kts 348°
2026-05-06 22:04 39.60867 19.91037 20 ft 10 kts 348°
2026-05-06 22:05 39.60947 19.91017 19 ft 14 kts 349°
2026-05-06 22:05 39.61023 19.91023 20 ft 10 kts 36°
2026-05-06 22:05 39.61053 19.91084 19 ft 1 kts 59°
2026-05-06 22:05 39.61054 19.91084 19 ft 1 kts 59°
2026-05-06 22:06 39.61056 19.91091 19 ft 0 kts 62°
2026-05-06 22:06 39.61057 19.91091 19 ft 0 kts 62°
2026-05-06 22:06 39.61058 19.91104 19 ft 3 kts 86°
2026-05-06 22:07 39.61036 19.91126 21 ft 6 kts 155°
2026-05-06 22:07 39.60986 19.91141 19 ft 9 kts 169°
2026-05-06 22:07 39.60912 19.91161 19 ft 13 kts 167°
2026-05-06 22:07 39.60814 19.91187 18 ft 16 kts 168°
2026-05-06 22:08 39.60696 19.91217 18 ft 14 kts 168°
2026-05-06 22:08 39.60654 19.91270 20 ft 8 kts 82°
2026-05-06 22:08 39.60663 19.91333 19 ft 5 kts 79°
2026-05-06 22:08 39.60667 19.91354 19 ft 1 kts 79°
2026-05-06 22:09 39.60667 19.91356 19 ft 0 kts 79°